Regional Weather Roundup
Issued by NWS

Home | Current Version | Previous Version | Text Only | Print | Product List | Glossary Off
Versions: 1 2 3 4 5 6 7 8 9 10 11 12 13 14 15 16 17 18 19 20 21 22 23 24 25 26 27 28 29 30 31 32 33 34 35 36 37 38 39 40 41 42 43 44 45 46 47 48 49 50

188
ASUS45 KBOU 231107
RWRCO

WEATHER ROUNDUP FOR COLORADO
NATIONAL WEATHER SERVICE DENVER/BOULDER CO
500 AM MDT WED AUG 23 2017

NOTE: "FAIR" INDICATES FEW OR NO CLOUDS BELOW 12000 FEET WITH NO
SIGNIFICANT WEATHER AND/OR OBSTRUCTIONS TO VISIBILITY.

COZ001>005-013-030-031-231200-
...NORTHWEST COLORADO...

CITY           SKY/WX    TMP DP  RH WIND       PRES   REMARKS
CRAIG          FAIR      53  42  66 CALM      30.31F
HAYDEN         FAIR      57  40  52 E7        30.34F
MEEKER         MOCLDY    56  44  64 CALM      30.32F
RABBIT EARS PA CLOUDY    52  36  54 W10       30.59S
STEAMBOAT SPGS FAIR      50  41  70 CALM      30.35S
WALDEN         FAIR      43  36  75 SE6       30.44S
$$

COZ006>008-011-231200-
...WEST CENTRAL VALLEYS...

CITY           SKY/WX    TMP DP  RH WIND       PRES   REMARKS
GRAND JUNCTION FAIR      64  51  62 SE12      30.21S
MONTROSE       FAIR      53  45  74 SE5       30.31S
EAGLE          FAIR      54  41  61 CALM      30.37F
RIFLE          FAIR      58  45  62 NE3       30.28S
DELTA          FAIR      58  46  64 NE3       30.27S
NUCLA          FAIR      57  45  62 E10       30.34S
$$

COZ017>023-064>068-231200-
...SOUTHWEST COLORADO...

CITY           SKY/WX    TMP DP  RH WIND       PRES   REMARKS
DURANGO        FAIR      52  44  74 S3        30.36F
CORTEZ         FAIR      52  48  86 CALM      30.29F
PAGOSA SPRINGS FAIR      48  46  91 CALM      30.44S
TELLURIDE      FAIR      50  43  77 SE6       30.53S
WOLF CREEK PAS MOCLDY    41  37  87 SW9       30.73F
$$

COZ009-010-012-014-032>034-037-058>063-231200-
...CENTRAL COLORADO...

CITY           SKY/WX    TMP DP  RH WIND       PRES   REMARKS
ASPEN          CLOUDY    53  42  66 S6        30.40F
BUENA VISTA    FAIR      43  39  87 CALM      30.45S
COPPER MTN     MOCLDY    52  34  50 CALM      30.69S
BERTHOUD PASS  CLOUDY    41  36  81 N6        30.71F
COTTONWOOD PAS FAIR      54  37  54 CALM      30.54F
GUNNISON       FAIR      41  39  93 CALM      30.47S
KREMMLING      MOCLDY    54  43  66 CALM      30.41F
LEADVILLE      FAIR      37  34  89 NE6       30.54F
MONARCH PASS   FAIR      41  36  81 W18       30.77S
SALIDA         FAIR      55  44  68 NW7       30.49S
SUNLIGHT       CLOUDY    48  34  57 SW5       30.63S
WILKERSON PASS FAIR      46  34  61 W7        30.65F
$$

COZ069>075-231200-
...SAN LUIS VALLEY/SANGRE DE CRISTO MOUNTAINS...

CITY           SKY/WX    TMP DP  RH WIND       PRES   REMARKS
ALAMOSA        FAIR      45  44  97 N3        30.42F
DEL NORTE      FAIR      48  44  85 W10       30.46F
LA VETA PASS   NOT AVBL
SAGUACHE         N/A    N/A N/A N/A MISG        N/A
$$

COZ035-036-038>040-231200-
...NORTHERN COLORADO FRONT RANGE...

CITY           SKY/WX    TMP DP  RH WIND       PRES   REMARKS
DENVER INTL AP MOCLDY    65  48  54 SW13      30.18S
DMNS CITY PARK   N/A     64  46  51 E7        30.18S
AURORA         MOCLDY    64  49  56 S13       30.20F
FRONT RANGE AP FAIR      66  50  55 S14       30.19F
ERIE MUNI ARPT FAIR      62  52  69 CALM      30.22S
BOULDER MUN AP FAIR      64  45  48 S3        30.17S
CENTENNIAL     MOCLDY    63  49  60 S9        30.22S
BROOMFIELD     FAIR      64  54  68 CALM      30.20S
FORT COLLINS   FAIR      59  55  87 E3        30.17R
LONGMONT       FAIR      62  51  67 CALM      30.17F
$$

COZ041-046-047-076>085-087-088-231200-
...PIKES PEAK/PALMER DIVIDE AND SOUTHERN FOOTHILLS...

CITY           SKY/WX    TMP DP  RH WIND       PRES   REMARKS
COLO. SPRINGS  MOCLDY    56  50  80 NE7       30.29F
A. F. ACADEMY  CLOUDY    55  50  85 N5        30.29F
SCHRIEVER AFB  MOCLDY    55  49  82 N3        30.29F
CHEYENNE MTN   MOCLDY    57  49  73 CALM      30.26F
ELLICOTT       FAIR     N/A N/A N/A S8        30.27F
FALCON         FAIR      55  52  88 NW3       30.33F
FORT CARSON    MOCLDY    53  50  88 NW6       30.26F
LIMON          FAIR      49  49 100 S3        30.24F
MONUMENT HILL  FAIR      55  48  76 S10       30.32F
CANON CITY     CLEAR     64  50  59 W10       30.24S
WALSENBURG     FAIR      61  48  63 W13       30.27F
TRINIDAD       FAIR      56  48  74 SW10      30.28S
$$

COZ042>045-048>051-090-091-231200-
...NORTHEAST COLORADO...

CITY           SKY/WX    TMP DP  RH WIND       PRES   REMARKS
GREELEY ARPT   FAIR      55  53  93 N6        30.16S
AKRON          FAIR      57  52  83 S12       30.17S
BURLINGTON     FAIR      56  53  90 S14       30.21F
WRAY           FAIR      57  48  72 SE10      30.18F
YUMA           FAIR      52  50  93 SE6       30.17S
STERLING       FAIR      57  54  88 S7        30.13F
HOLYOKE        FAIR      55  50  82 SE8       30.18S
FORT MORGAN    FAIR      55  52  89 E3        30.15F
$$

COZ086-089-092>099-231200-
...SOUTHEAST COLORADO...

CITY           SKY/WX    TMP DP  RH WIND       PRES   REMARKS
PUEBLO         FAIR      56  49  77 NW3       30.20F
LA JUNTA       FAIR      59  56  89 E8        30.19F
LAMAR          FAIR      61  55  81 S10       30.19S
SPRINGFIELD      N/A     62  62 100 S9        30.25S
$$




USA.gov is the U.S. government's official web portal to all federal, state and local government web resources and services.